Weather History for Cushing, OK

Change the Weather History Date:

Saturday, November 2, 2013

  Actual Average Record
Temperature  
Mean Temperature 48 °F -  
Max Temperature 62 °F 65 °F 86 °F (2012)
Min Temperature 33 °F 42 °F 19 °F (1954)
Degree Days  
Heating Degree Days 18    
Moisture  
Dew Point 37 °F    
Average Humidity 71    
Maximum Humidity 93    
Minimum Humidity 39    
Precipitation  
Precipitation 0.00 in - - ()
Sea Level Pressure  
Sea Level Pressure 30.21 in    
Wind  
Wind Speed 6 mph (NW)    
Max Wind Speed 17 mph    
Max Gust Speed 24 mph    
Visibility 10 miles    
Events      
Averages and records for this station are not official NWS values.
T = Trace of Precipitation, MM = Missing Value Source: NWS Daily Summary

Daily Weather History Graph

Daily Weather History Graph

Search for Another Location

Airport:

Trip Planner

Search our weather history database for the weather conditions in past years. The results will help you decide how hot, cold, wet, or windy it might be!

Date:

Astronomy

Nov. 02, 2013 Rise Set
Actual Time 7:50 AM CDT 6:30 PM CDT
Civil Twilight 7:24 AM CDT 6:56 PM CDT
Nautical Twilight 6:53 AM CDT 7:26 PM CDT
Astronomical Twilight 6:23 AM CDT 7:56 PM CDT
Moon 6:50 AM CDT (11/2) 6:01 PM CDT (11/2)
Length of Visible Light 11h 32m
Length of Day
10h 39m
Waning Crescent, 1% of the Moon is Illuminated
Nov 2
Waning Crescent
Nov 3
New
Nov 9
First Quarter
Nov 17
Full
Nov 25
Last Quarter

Hourly Weather History & Observations

Time (CDT) Temp. Windchill Dew Point Humidity Pressure Visibility Wind Dir Wind Speed Gust Speed Precip Events Conditions
12:15 AM 44.6 °F 41.4 °F 41.0 °F 87% 30.09 in 10.0 mi WNW 5.8 mph - N/A   Clear
12:35 AM 44.6 °F 42.2 °F 41.0 °F 87% 30.10 in 10.0 mi WNW 4.6 mph - N/A   Clear
12:55 AM 44.6 °F 41.4 °F 41.0 °F 87% 30.10 in 10.0 mi WNW 5.8 mph - N/A   Clear
1:15 AM 44.6 °F 40.7 °F 41.0 °F 87% 30.11 in 10.0 mi WNW 6.9 mph - N/A   Clear
1:35 AM 44.6 °F 42.2 °F 41.0 °F 87% 30.12 in 10.0 mi WNW 4.6 mph - N/A   Clear
1:55 AM 42.8 °F 39.3 °F 41.0 °F 93% 30.12 in 10.0 mi WNW 5.8 mph - N/A   Clear
2:15 AM 42.8 °F 39.3 °F 41.0 °F 93% 30.14 in 10.0 mi NW 5.8 mph - N/A   Clear
2:35 AM 42.8 °F 39.3 °F 41.0 °F 93% 30.14 in 10.0 mi WNW 5.8 mph - N/A   Clear
2:55 AM 42.8 °F - 39.2 °F 87% 30.15 in 10.0 mi Calm Calm - N/A   Clear
3:15 AM 42.8 °F - 37.4 °F 81% 30.15 in 10.0 mi Calm Calm - N/A   Clear
3:35 AM 41.0 °F 38.0 °F 37.4 °F 87% 30.16 in 10.0 mi West 4.6 mph - N/A   Clear
3:55 AM 41.0 °F 38.0 °F 37.4 °F 87% 30.16 in 10.0 mi WNW 4.6 mph - N/A   Clear
4:15 AM 41.0 °F 37.1 °F 37.4 °F 87% 30.17 in 10.0 mi West 5.8 mph - N/A   Clear
4:35 AM 39.2 °F 35.0 °F 37.4 °F 93% 30.17 in 10.0 mi West 5.8 mph - N/A   Clear
4:55 AM 39.2 °F 35.0 °F 37.4 °F 93% 30.18 in 10.0 mi WNW 5.8 mph - N/A   Clear
5:15 AM 39.2 °F 34.2 °F 37.4 °F 93% 30.18 in 10.0 mi WNW 6.9 mph - N/A   Clear
5:35 AM 39.2 °F 35.0 °F 37.4 °F 93% 30.19 in 10.0 mi WNW 5.8 mph - N/A   Clear
5:55 AM 41.0 °F 36.4 °F 37.4 °F 87% 30.20 in 10.0 mi WNW 6.9 mph - N/A   Clear
6:15 AM 41.0 °F 36.4 °F 37.4 °F 87% 30.20 in 10.0 mi WNW 6.9 mph - N/A   Clear
6:35 AM 41.0 °F 37.1 °F 37.4 °F 87% 30.21 in 10.0 mi WNW 5.8 mph - N/A   Clear
6:55 AM 41.0 °F 37.1 °F 37.4 °F 87% 30.22 in 10.0 mi NW 5.8 mph - N/A   Clear
7:15 AM 41.0 °F 35.8 °F 37.4 °F 87% 30.23 in 10.0 mi WNW 8.1 mph - N/A   Clear
7:35 AM 41.0 °F 37.1 °F 35.6 °F 81% 30.23 in 10.0 mi WNW 5.8 mph - N/A   Clear
7:55 AM 39.2 °F 35.0 °F 35.6 °F 87% 30.24 in 10.0 mi NW 5.8 mph - N/A   Clear
8:15 AM 39.2 °F 35.0 °F 35.6 °F 87% 30.24 in 10.0 mi NW 5.8 mph - N/A   Clear
8:35 AM 41.0 °F 37.1 °F 37.4 °F 87% 30.26 in 10.0 mi NW 5.8 mph - N/A   Clear
8:55 AM 42.8 °F 40.1 °F 37.4 °F 81% 30.27 in 10.0 mi NNW 4.6 mph - N/A   Clear
9:15 AM 46.4 °F 43.5 °F 39.2 °F 76% 30.27 in 10.0 mi NW 5.8 mph - N/A   Clear
9:35 AM 48.2 °F - 41.0 °F 76% 30.28 in 10.0 mi NNW 9.2 mph - N/A   Clear
9:55 AM 50.0 °F - 41.0 °F 71% 30.29 in 10.0 mi NW 8.1 mph - N/A   Clear
10:15 AM 51.8 °F - 41.0 °F 67% 30.30 in 10.0 mi NW 8.1 mph 16.1 mph N/A   Clear
10:35 AM 53.6 °F - 39.2 °F 58% 30.30 in 10.0 mi NNW 12.7 mph - N/A   Clear
10:55 AM 53.6 °F - 39.2 °F 58% 30.31 in 10.0 mi NNW 9.2 mph - N/A   Clear
12:15 PM 59.0 °F - 37.4 °F 45% 30.30 in 10.0 mi NNW 17.3 mph 24.2 mph N/A   Clear
12:35 PM 59.0 °F - 37.4 °F 45% 30.30 in 10.0 mi NNW 16.1 mph 20.7 mph N/A   Clear
12:55 PM 60.8 °F - 37.4 °F 42% 30.29 in 10.0 mi NNW 12.7 mph - N/A   Clear
1:15 PM 60.8 °F - 37.4 °F 42% 30.28 in 10.0 mi North 13.8 mph 19.6 mph N/A   Clear
1:35 PM 60.8 °F - 37.4 °F 42% 30.27 in 10.0 mi North 12.7 mph 20.7 mph N/A   Clear
1:55 PM 60.8 °F - 37.4 °F 42% 30.26 in 10.0 mi North 10.4 mph 16.1 mph N/A   Clear
2:15 PM 62.6 °F - 37.4 °F 39% 30.26 in 10.0 mi North 9.2 mph - N/A   Clear
2:35 PM 62.6 °F - 37.4 °F 39% 30.25 in 10.0 mi NNW 13.8 mph 18.4 mph N/A   Clear
2:55 PM 62.6 °F - 37.4 °F 39% 30.23 in 10.0 mi NNW 9.2 mph 17.3 mph N/A   Clear
3:15 PM 62.6 °F - 37.4 °F 39% 30.23 in 10.0 mi North 8.1 mph 17.3 mph N/A   Clear
3:35 PM 62.6 °F - 37.4 °F 39% 30.22 in 10.0 mi North 10.4 mph 16.1 mph N/A   Clear
3:55 PM 62.6 °F - 37.4 °F 39% 30.22 in 10.0 mi North 6.9 mph 10.4 mph N/A   Clear
4:15 PM 62.6 °F - 37.4 °F 39% 30.21 in 10.0 mi NNW 6.9 mph - N/A   Clear
4:35 PM 62.6 °F - 37.4 °F 39% 30.21 in 10.0 mi NNE 9.2 mph - N/A   Clear
4:55 PM 62.6 °F - 37.4 °F 39% 30.20 in 10.0 mi North 4.6 mph - N/A   Clear
5:15 PM 62.6 °F - 37.4 °F 39% 30.20 in 10.0 mi NNW 3.5 mph - N/A   Clear
5:35 PM 60.8 °F - 35.6 °F 39% 30.20 in 10.0 mi North 3.5 mph - N/A   Clear
5:55 PM 60.8 °F - 37.4 °F 42% 30.20 in 10.0 mi North 3.5 mph - N/A   Clear
6:15 PM 59.0 °F - 37.4 °F 45% 30.21 in 10.0 mi Calm Calm - N/A   Clear
6:35 PM 53.6 °F - 35.6 °F 51% 30.21 in 10.0 mi Calm Calm - N/A   Clear
6:55 PM 50.0 °F - 37.4 °F 62% 30.21 in 10.0 mi Calm Calm - N/A   Clear
7:15 PM 46.4 °F - 32.0 °F 57% 30.21 in 10.0 mi Calm Calm - N/A   Clear
7:35 PM 42.8 °F - 33.8 °F 70% 30.21 in 10.0 mi Calm Calm - N/A   Clear
7:55 PM 41.0 °F - 32.0 °F 70% 30.21 in 10.0 mi Calm Calm - N/A   Clear
8:15 PM 41.0 °F - 33.8 °F 76% 30.21 in 10.0 mi Calm Calm - N/A   Clear
8:35 PM 39.2 °F - 32.0 °F 75% 30.21 in 10.0 mi Calm Calm - N/A   Clear
8:55 PM 37.4 °F - 32.0 °F 81% 30.21 in 10.0 mi Calm Calm - N/A   Clear
9:15 PM 37.4 °F - 32.0 °F 81% 30.21 in 10.0 mi Calm Calm - N/A   Clear
9:35 PM 37.4 °F - 33.8 °F 87% 30.21 in 10.0 mi Calm Calm - N/A   Clear
9:55 PM 37.4 °F - 32.0 °F 81% 30.21 in 10.0 mi Calm Calm - N/A   Clear
10:15 PM 37.4 °F - 33.8 °F 87% 30.21 in 10.0 mi Calm Calm - N/A   Clear
10:35 PM 35.6 °F - 33.8 °F 93% 30.21 in 10.0 mi Calm Calm - N/A   Clear
10:55 PM 35.6 °F - 32.0 °F 87% 30.21 in 10.0 mi Calm Calm - N/A   Clear
11:15 PM 35.6 °F - 33.8 °F 93% 30.20 in 10.0 mi Calm Calm - N/A   Clear
11:35 PM 33.8 °F - 32.0 °F 93% 30.20 in 10.0 mi Calm Calm - N/A   Clear
11:55 PM 33.8 °F - 32.0 °F 93% 30.20 in 10.0 mi Calm Calm - N/A   Clear